Location: McFarlands Corners
(41.4117°N, 81.3382°W)
Time: 07:04:45
(UTC+00:00)

Vanguard 3 - All Passes

Search period start: 18 February 2026 00:00
Search period end: 28 February 2026 00:00
Orbit: 507 x 3205 km, 33.3° (Epoch: 17 February)

Date Brightness Start Highest point End Pass type
(mag) Time Alt. Az. Time Alt. Az. Time Alt. Az.
18 Feb - 01:39:05 10° WSW 01:42:49 21° SSW 01:45:50 10° SSE visible
18 Feb - 17:45:53 10° SSE 17:46:36 10° SSE 17:47:18 10° SE daylight
18 Feb - 19:49:23 10° SSW 19:59:18 26° SSE 20:05:56 10° ESE daylight
18 Feb - 22:02:08 10° WSW 22:11:08 39° S 22:16:34 10° ESE daylight
19 Feb - 00:15:57 10° WSW 00:21:54 34° SSW 00:25:54 10° SE visible
19 Feb - 02:30:30 10° SW 02:31:40 11° SSW 02:32:46 10° SSW visible
19 Feb - 18:27:22 10° S 18:36:40 20° SSE 18:43:35 10° ESE daylight
19 Feb - 20:38:20 10° SW 20:49:09 36° SSE 20:55:45 10° ESE daylight
19 Feb - 22:52:19 10° WSW 23:00:37 43° S 23:05:38 10° ESE daylight
20 Feb - 01:06:21 10° WSW 01:10:55 24° SSW 01:14:20 10° SSE visible
20 Feb - 17:08:13 10° SSE 17:13:42 12° SE 17:18:30 10° SE daylight
20 Feb - 19:14:55 10° SSW 19:26:40 30° SSE 19:34:25 10° ESE daylight
20 Feb - 21:28:15 10° WSW 21:38:52 44° S 21:45:05 10° ESE daylight
20 Feb - 23:42:45 10° WSW 23:49:55 38° SSW 23:54:27 10° SE visible
21 Feb - 01:57:39 10° WSW 01:59:41 12° SSW 02:01:30 10° S visible
21 Feb - 17:52:35 10° SSW 18:03:46 23° SSE 18:12:02 10° ESE daylight
21 Feb - 20:04:04 10° SW 20:16:37 40° SSE 20:24:11 10° E daylight
21 Feb - 22:18:39 10° WSW 22:28:27 47° S 22:34:09 10° ESE daylight
22 Feb - 00:33:20 10° W 00:38:57 27° SSW 00:42:52 10° SSE visible
22 Feb - 16:32:44 10° S 16:40:37 15° SE 16:47:21 10° ESE daylight
22 Feb - 18:40:23 10° SSW 18:53:51 33° SSE 19:02:43 10° E daylight
22 Feb - 20:54:09 10° WSW 21:06:26 48° S 21:13:32 10° ESE daylight
22 Feb - 23:09:16 10° W 23:17:50 42° SSW 23:22:59 10° SE daylight
23 Feb - 01:24:36 10° WSW 01:27:41 15° SW 01:30:14 10° S visible
23 Feb - 17:17:52 10° SSW 17:30:42 25° SSE 17:40:14 10° ESE daylight
23 Feb - 19:29:41 10° SW 19:43:52 44° SSE 19:52:31 10° E daylight
23 Feb - 21:44:44 10° WSW 21:56:08 51° S 22:02:38 10° ESE daylight
24 Feb - 00:00:01 10° W 00:06:55 30° SSW 00:11:25 10° SE visible
24 Feb - 15:57:44 10° S 16:07:22 17° SE 16:15:36 10° ESE daylight
24 Feb - 18:05:50 10° SW 18:20:47 36° SSE 18:30:52 10° E daylight
24 Feb - 20:19:53 10° WSW 20:33:49 52° S 20:41:54 10° E daylight
24 Feb - 22:35:32 10° W 22:45:37 45° SSW 22:51:29 10° ESE daylight
25 Feb - 00:51:19 10° WSW 00:55:37 17° SW 00:58:55 10° S visible
25 Feb - 16:43:18 10° SSW 16:57:23 28° SSE 17:08:11 10° E daylight
25 Feb - 18:55:13 10° SW 19:10:54 47° SSE 19:20:41 10° E daylight
25 Feb - 21:10:36 10° WSW 21:23:38 54° S 21:31:02 10° ESE daylight
25 Feb - 23:26:27 10° W 23:34:45 33° SSW 23:39:56 10° SE visible
26 Feb - 15:23:05 10° S 15:33:56 18° SE 15:43:25 10° ESE daylight
26 Feb - 17:31:21 10° SW 17:47:31 39° SSE 17:58:49 10° E daylight
26 Feb - 19:45:30 10° WSW 20:00:59 55° S 20:10:08 10° E daylight
26 Feb - 22:01:33 10° W 22:13:13 49° SSW 22:19:54 10° ESE daylight
27 Feb - 00:17:48 10° W 00:23:28 20° SW 00:27:33 10° S visible
27 Feb - 16:08:54 10° SSW 16:23:54 30° SSE 16:35:53 10° E daylight
27 Feb - 18:20:46 10° SW 18:37:43 50° SSE 18:48:42 10° E daylight
27 Feb - 20:36:18 10° WSW 20:50:56 57° S 20:59:19 10° ESE daylight
27 Feb - 22:52:37 10° W 23:02:27 37° SSW 23:08:24 10° SE daylight
